Location: Mt. Bigelow
(32.4165°N, 110.7345°W)
Time: 15:05:28
(UTC-07:00)

N. Korean satellite - Visible Passes

Search period start: 24 November 2017 00:00
Search period end: 04 December 2017 00:00
Orbit: 460 x 514 km, 97.2° (Epoch: 24 November)

Date Brightness Start Highest point End Pass type
(mag) Time Alt. Az. Time Alt. Az. Time Alt. Az.
24 Nov 8.9 19:06:50 10° SSW 19:09:43 25° W 19:12:41 10° NW visible
25 Nov 7.2 18:42:44 10° S 18:46:10 56° W 18:49:41 10° NNW visible
26 Nov 9.9 06:15:24 10° NE 06:17:50 16° E 06:20:16 10° SE visible
26 Nov 6.5 18:19:15 10° SSE 18:22:41 61° ENE 18:26:14 10° N visible
27 Nov 7.4 17:56:17 10° SE 17:59:17 27° ENE 18:02:22 10° NNE visible
27 Nov 10.0 19:31:25 10° WSW 19:32:50 12° W 19:34:16 10° WNW visible
28 Nov 8.9 19:06:14 10° SSW 19:09:11 25° W 19:12:12 10° NW visible
29 Nov 7.2 18:42:10 10° S 18:45:37 57° W 18:49:10 10° NNW visible
30 Nov 9.9 06:14:53 10° NE 06:17:18 16° E 06:19:43 10° SE visible
30 Nov 6.5 18:18:38 10° SSE 18:22:07 61° ENE 18:25:42 10° N visible
01 Dec 7.5 17:55:40 10° SE 17:58:42 27° ENE 18:01:49 10° NNE visible
01 Dec 10.0 19:30:42 10° WSW 19:32:14 12° W 19:33:47 10° WNW visible
02 Dec 8.9 19:05:34 10° SSW 19:08:35 26° W 19:11:39 10° NW visible
03 Dec 8.7 06:36:55 10° NNE 06:40:19 33° E 06:43:41 10° SSE visible
03 Dec 7.2 18:41:29 10° S 18:44:59 58° W 18:48:35 10° NNW visible
